QPF
0.02 0.03 0.04 0.05 0.05 0.04 0.07 0.08 0.08 0.12 0.12 0.09 0.07 0.07 0.07 0.08 0.08 0.08 0.07 0.05 0.04 0.03 0.02 0.02 0.02 0.02 0.01 0.01 0.01 0.01 0.01 0.01 0.00 0.00 0.00 0.00 0.00 0.00 0.00 0.00 0.00 0.00 0.00
0.01 0.01 0.03 0.04 0.05 0.05 0.04 0.05 0.07 0.08 0.09 0.08 0.08 0.08 0.08 0.08 0.07 0.08 0.07 0.06 0.05 0.05 0.04 0.04 0.03 0.02 0.02 0.02 0.02 0.02 0.02 0.01 0.01 0.01 0.01 0.00 0.00 0.00 0.00 0.00 0.00 0.00 0.00
0.00 0.00 0.01 0.02 0.03 0.04 0.03 0.03 0.04 0.07 0.07 0.08 0.10 0.10 0.11 0.09 0.06 0.05 0.04 0.04 0.06 0.07 0.06 0.05 0.04 0.03 0.03 0.03 0.02 0.03 0.03 0.02 0.02 0.02 0.02 0.01 0.00 0.00 0.00 0.00 0.00 0.00 0.00
0.00 0.00 0.01 0.01 0.02 0.03 0.03 0.03 0.04 0.06 0.06 0.07 0.07 0.06 0.06 0.06 0.06 0.07 0.08 0.08 0.08 0.08 0.08 0.08 0.07 0.06 0.05 0.04 0.04 0.03 0.03 0.02 0.02 0.02 0.02 0.02 0.01 0.01 0.01 0.00 0.00 0.00 0.00
0.00 0.00 0.00 0.01 0.01 0.02 0.03 0.03 0.04 0.06 0.07 0.07 0.07 0.07 0.07 0.08 0.08 0.09 0.09 0.09 0.10 0.10 0.09 0.07 0.05 0.04 0.03 0.03 0.02 0.02 0.02 0.02 0.02 0.02 0.02 0.02 0.02 0.02 0.02 0.01 0.00 0.00 0.00
0.00 0.00 0.00 0.00 0.01 0.01 0.02 0.03 0.04 0.06 0.09 0.10 0.10 0.10 0.09 0.08 0.08 0.09 0.09 0.09 0.08 0.08 0.07 0.07 0.06 0.04 0.03 0.03 0.03 0.03 0.02 0.02 0.02 0.02 0.02 0.02 0.02 0.02 0.02 0.01 0.01 0.00 0.00
0.00 0.00 0.00 0.00 0.01 0.01 0.02 0.02 0.03 0.04 0.05 0.07 0.07 0.07 0.08 0.08 0.08 0.09 0.08 0.07 0.05 0.04 0.04 0.05 0.04 0.03 0.02 0.02 0.02 0.02 0.02 0.02 0.02 0.02 0.02 0.02 0.01 0.01 0.01 0.01 0.01 0.00 0.00
0.00 0.00 0.00 0.00 0.00 0.01 0.01 0.02 0.03 0.03 0.04 0.04 0.05 0.06 0.07 0.06 0.06 0.06 0.06 0.06 0.05 0.04 0.03 0.03 0.03 0.03 0.02 0.02 0.02 0.01 0.01 0.01 0.01 0.01 0.01 0.01 0.01 0.01 0.01 0.01 0.01 0.01 0.00
0.00 0.00 0.00 0.00 0.00 0.00 0.01 0.01 0.02 0.03 0.04 0.05 0.05 0.05 0.05 0.05 0.05 0.05 0.05 0.04 0.04 0.03 0.03 0.03 0.02 0.02 0.02 0.02 0.01 0.01 0.01 0.00 0.00 0.00 0.00 0.00 0.00 0.00 0.00 0.00 0.01 0.01 0.01
0.00 0.00 0.00 0.00 0.00 0.00 0.00 0.01 0.01 0.02 0.03 0.04 0.04 0.04 0.04 0.03 0.03 0.03 0.02 0.02 0.02 0.02 0.02 0.02 0.01 0.01 0.01 0.01 0.01 0.00 0.00 0.00 0.00 0.00 0.00 0.00 0.00 0.00 0.00 0.00 0.00 0.01 0.01
0.00 0.00 0.00 0.00 0.00 0.00 0.00 0.00 0.01 0.01 0.01 0.02 0.03 0.03 0.03 0.02 0.02 0.02 0.01 0.01 0.01 0.01 0.02 0.01 0.01 0.00 0.00 0.00 0.00 0.00 0.00 0.00 0.00 0.00 0.00 0.00 0.00 0.00 0.00 0.00 0.00 0.00 0.00
0.00 0.00 0.00 0.00 0.00 0.00 0.00 0.00 0.00 0.00 0.01 0.01 0.01 0.01 0.02 0.02 0.02 0.02 0.01 0.01 0.01 0.01 0.00 0.00 0.00 0.00 0.00 0.00 0.00 0.00 0.00 0.00 0.00 0.00 0.00 0.00 0.00 0.00 0.00 0.00 0.00 0.00 0.00
0.00 0.00 0.00 0.00 0.00 0.00 0.00 0.00 0.00 0.00 0.00 0.01 0.01 0.01 0.01 0.01 0.01 0.01 0.01 0.01 0.01 0.01 0.00 0.00 0.00 0.00 0.00 0.00 0.00 0.00 0.00 0.00 0.00 0.00 0.00 0.00 0.00 0.00 0.00 0.00 0.00 0.00 0.00
0.00 0.00 0.00 0.00 0.00 0.00 0.00 0.00 0.00 0.00 0.00 0.00 0.00 0.00 0.00 0.00 0.00 0.00 0.00 0.00 0.00 0.00 0.00 0.00 0.00 0.00 0.00 0.00 0.00 0.00 0.00 0.00 0.00 0.00 0.00 0.00 0.00 0.00 0.00 0.00 0.00 0.00 0.00
0.00 0.00 0.00 0.00 0.00 0.00 0.00 0.00 0.00 0.00 0.00 0.00 0.00 0.00 0.00 0.00 0.00 0.00 0.00 0.00 0.00 0.00 0.00 0.00 0.00 0.00 0.00 0.00 0.00 0.00 0.00 0.00 0.00 0.00 0.00 0.00 0.00 0.00 0.00 0.00 0.00 0.00 0.00
0.00 0.00 0.00 0.00 0.00 0.00 0.00 0.00 0.00 0.00 0.00 0.00 0.00 0.00 0.00 0.00 0.00 0.00 0.00 0.00 0.00 0.00 0.00 0.00 0.00 0.00 0.00 0.00 0.00 0.00 0.00 0.00 0.00 0.00 0.00 0.00 0.00 0.00 0.00 0.00 0.00 0.00 0.00
0.00 0.00 0.00 0.00 0.00 0.00 0.00 0.00 0.00 0.00 0.00 0.00 0.00 0.00 0.00 0.00 0.00 0.00 0.00 0.00 0.00 0.00 0.00 0.00 0.00 0.00 0.00 0.00 0.00 0.00 0.00 0.00 0.00 0.00 0.00 0.00 0.00 0.00 0.00 0.00 0.00 0.00 0.00
0.00 0.00 0.00 0.00 0.00 0.00 0.00 0.00 0.00 0.00 0.00 0.00 0.00 0.00 0.00 0.00 0.00 0.00 0.00 0.00 0.00 0.00 0.00 0.00 0.00 0.00 0.00 0.00 0.00 0.00 0.00 0.00 0.00 0.00 0.00 0.00 0.00 0.00 0.00 0.00 0.00 0.00 0.00
0.00 0.00 0.00 0.00 0.00 0.00 0.00 0.00 0.00 0.00 0.00 0.00 0.00 0.00 0.00 0.00 0.00 0.00 0.00 0.00 0.00 0.00 0.00 0.00 0.00 0.00 0.00 0.00 0.00 0.00 0.00 0.00 0.00 0.00 0.00 0.00 0.00 0.00 0.00 0.00 0.00 0.00 0.00
0.01 0.00 0.00 0.00 0.00 0.00 0.00 0.00 0.00 0.00 0.00 0.00 0.00 0.00 0.00 0.00 0.00 0.00 0.00 0.00 0.00 0.00 0.00 0.00 0.00 0.00 0.00 0.00 0.00 0.00 0.00 0.00 0.00 0.00 0.00 0.00 0.00 0.00 0.00 0.00 0.00 0.00 0.00
0.01 0.00 0.00 0.00 0.00 0.00 0.00 0.00 0.00 0.00 0.00 0.00 0.00 0.00 0.01 0.01 0.01 0.01 0.01 0.01 0.00 0.00 0.00 0.00 0.00 0.00 0.00 0.00 0.00 0.00 0.00 0.00 0.00 0.00 0.00 0.00 0.00 0.00 0.00 0.00 0.00 0.00 0.00
0.01 0.01 0.00 0.00 0.00 0.01 0.01 0.01 0.01 0.01 0.00 0.00 0.00 0.00 0.01 0.01 0.01 0.02 0.01 0.01 0.00 0.00 0.00 0.00 0.00 0.00 0.00 0.00 0.00 0.00 0.00 0.00 0.00 0.00 0.00 0.00 0.00 0.00 0.00 0.00 0.00 0.00 0.00
0.01 0.01 0.01 0.00 0.00 0.00 0.00 0.01 0.01 0.01 0.00 0.00 0.00 0.00 0.00 0.00 0.01 0.01 0.01 0.00 0.00 0.00 0.00 0.00 0.00 0.00 0.00 0.00 0.00 0.00 0.00 0.00 0.00 0.00 0.00 0.00 0.00 0.00 0.00 0.00 0.00 0.00 0.00
0.02 0.02 0.01 0.01 0.00 0.00 0.00 0.00 0.01 0.01 0.00 0.00 0.01 0.01 0.01 0.01 0.01 0.00 0.00 0.00 0.00 0.00 0.00 0.00 0.00 0.00 0.00 0.00 0.00 0.00 0.00 0.00 0.00 0.00 0.00 0.00 0.00 0.00 0.00 0.00 0.00 0.00 0.00
0.02 0.02 0.03 0.02 0.01 0.00 0.00 0.00 0.01 0.01 0.01 0.01 0.01 0.01 0.01 0.01 0.01 0.00 0.00 0.01 0.01 0.01 0.00 0.00 0.00 0.00 0.00 0.00 0.00 0.00 0.00 0.00 0.00 0.00 0.00 0.00 0.00 0.00 0.00 0.00 0.00 0.00 0.00
0.02 0.03 0.03 0.03 0.04 0.03 0.02 0.02 0.01 0.01 0.01 0.01 0.01 0.01 0.01 0.01 0.01 0.01 0.01 0.01 0.01 0.02 0.01 0.01 0.00 0.00 0.00 0.01 0.01 0.00 0.00 0.00 0.00 0.00 0.00 0.00 0.00 0.00 0.00 0.00 0.00 0.00 0.00
MSLP
1013.38 1013.22 1013.13 1013.06 1013.03 1013.05 1013.13 1013.30 1013.57 1013.95 1014.42 1014.94 1015.46 1015.94 1016.36 1016.68 1016.91 1017.08 1017.21 1017.34 1017.50 1017.70 1017.95 1018.25 1018.58 1018.91 1019.24 1019.54 1019.80 1020.03 1020.21 1020.35 1020.45 1020.49 1020.48 1020.41 1020.29 1020.14 1019.96 1019.81 1019.69 1019.65 1019.68
1013.15 1013.01 1012.90 1012.82 1012.77 1012.75 1012.79 1012.93 1013.18 1013.56 1014.03 1014.57 1015.12 1015.65 1016.11 1016.48 1016.76 1016.97 1017.13 1017.28 1017.45 1017.65 1017.90 1018.18 1018.49 1018.80 1019.09 1019.36 1019.59 1019.80 1019.97 1020.11 1020.21 1020.28 1020.30 1020.27 1020.20 1020.10 1019.99 1019.90 1019.85 1019.86 1019.96
1012.65 1012.56 1012.51 1012.47 1012.44 1012.43 1012.47 1012.61 1012.85 1013.21 1013.68 1014.22 1014.79 1015.34 1015.84 1016.26 1016.58 1016.84 1017.05 1017.24 1017.44 1017.66 1017.91 1018.19 1018.47 1018.74 1018.99 1019.22 1019.41 1019.58 1019.73 1019.86 1019.98 1020.07 1020.14 1020.17 1020.16 1020.13 1020.09 1020.07 1020.10 1020.19 1020.36
1011.93 1011.94 1011.98 1012.02 1012.06 1012.10 1012.18 1012.32 1012.55 1012.90 1013.34 1013.86 1014.42 1014.98 1015.49 1015.94 1016.33 1016.65 1016.92 1017.18 1017.43 1017.70 1017.97 1018.24 1018.50 1018.75 1018.96 1019.14 1019.29 1019.43 1019.56 1019.69 1019.81 1019.93 1020.03 1020.11 1020.17 1020.20 1020.24 1020.29 1020.39 1020.54 1020.77
1011.10 1011.22 1011.39 1011.54 1011.67 1011.79 1011.91 1012.06 1012.29 1012.60 1013.00 1013.48 1014.00 1014.54 1015.06 1015.55 1015.98 1016.37 1016.73 1017.07 1017.40 1017.73 1018.04 1018.34 1018.60 1018.82 1019.00 1019.15 1019.27 1019.38 1019.49 1019.61 1019.74 1019.88 1020.01 1020.12 1020.22 1020.30 1020.39 1020.49 1020.64 1020.85 1021.12
1010.28 1010.53 1010.81 1011.09 1011.32 1011.51 1011.68 1011.85 1012.06 1012.34 1012.68 1013.10 1013.57 1014.07 1014.59 1015.10 1015.58 1016.06 1016.51 1016.95 1017.37 1017.78 1018.15 1018.48 1018.76 1018.98 1019.14 1019.26 1019.36 1019.45 1019.55 1019.66 1019.79 1019.93 1020.07 1020.20 1020.31 1020.41 1020.51 1020.64 1020.81 1021.05 1021.35
1009.59 1009.94 1010.34 1010.72 1011.05 1011.31 1011.53 1011.71 1011.90 1012.14 1012.42 1012.77 1013.18 1013.65 1014.15 1014.67 1015.21 1015.76 1016.30 1016.84 1017.37 1017.86 1018.30 1018.67 1018.98 1019.21 1019.37 1019.49 1019.57 1019.65 1019.74 1019.84 1019.96 1020.09 1020.22 1020.32 1020.42 1020.50 1020.59 1020.70 1020.87 1021.11 1021.42
1009.12 1009.55 1010.03 1010.49 1010.90 1011.22 1011.47 1011.67 1011.85 1012.05 1012.28 1012.57 1012.93 1013.35 1013.83 1014.37 1014.95 1015.56 1016.19 1016.82 1017.43 1018.00 1018.50 1018.92 1019.25 1019.49 1019.66 1019.78 1019.86 1019.93 1020.02 1020.11 1020.22 1020.32 1020.42 1020.49 1020.54 1020.57 1020.62 1020.70 1020.84 1021.06 1021.36
1008.90 1009.38 1009.91 1010.42 1010.88 1011.25 1011.54 1011.76 1011.94 1012.11 1012.31 1012.56 1012.88 1013.27 1013.74 1014.28 1014.89 1015.55 1016.23 1016.92 1017.59 1018.21 1018.75 1019.20 1019.54 1019.80 1019.97 1020.09 1020.18 1020.26 1020.34 1020.43 1020.52 1020.61 1020.66 1020.68 1020.67 1020.65 1020.63 1020.65 1020.75 1020.93 1021.22
1008.91 1009.41 1009.96 1010.50 1010.99 1011.40 1011.72 1011.97 1012.17 1012.35 1012.54 1012.78 1013.08 1013.45 1013.91 1014.45 1015.07 1015.74 1016.45 1017.17 1017.85 1018.48 1019.03 1019.48 1019.82 1020.07 1020.25 1020.37 1020.47 1020.56 1020.66 1020.75 1020.84 1020.90 1020.93 1020.90 1020.84 1020.75 1020.66 1020.63 1020.67 1020.82 1021.08
1009.09 1009.58 1010.13 1010.68 1011.19 1011.63 1011.99 1012.28 1012.52 1012.74 1012.96 1013.21 1013.51 1013.89 1014.34 1014.87 1015.48 1016.14 1016.84 1017.53 1018.20 1018.80 1019.32 1019.73 1020.05 1020.28 1020.45 1020.58 1020.69 1020.81 1020.93 1021.04 1021.14 1021.20 1021.21 1021.16 1021.06 1020.91 1020.78 1020.69 1020.68 1020.79 1021.03
1009.34 1009.82 1010.34 1010.88 1011.40 1011.86 1012.27 1012.62 1012.92 1013.20 1013.48 1013.77 1014.10 1014.49 1014.94 1015.46 1016.05 1016.68 1017.33 1017.97 1018.58 1019.12 1019.58 1019.94 1020.22 1020.42 1020.58 1020.72 1020.85 1020.99 1021.14 1021.30 1021.42 1021.51 1021.53 1021.47 1021.34 1021.17 1021.00 1020.87 1020.82 1020.90 1021.11
1009.59 1010.03 1010.52 1011.04 1011.55 1012.03 1012.48 1012.90 1013.28 1013.63 1013.99 1014.34 1014.73 1015.15 1015.61 1016.12 1016.67 1017.26 1017.85 1018.42 1018.95 1019.42 1019.80 1020.11 1020.33 1020.51 1020.66 1020.80 1020.95 1021.13 1021.33 1021.53 1021.70 1021.82 1021.87 1021.82 1021.70 1021.53 1021.34 1021.18 1021.11 1021.15 1021.33
1009.76 1010.15 1010.60 1011.07 1011.57 1012.06 1012.55 1013.02 1013.49 1013.93 1014.37 1014.81 1015.26 1015.72 1016.21 1016.72 1017.25 1017.79 1018.33 1018.83 1019.29 1019.68 1020.00 1020.24 1020.43 1020.58 1020.72 1020.87 1021.05 1021.27 1021.51 1021.76 1021.98 1022.15 1022.23 1022.22 1022.12 1021.96 1021.77 1021.60 1021.51 1021.52 1021.67
1009.83 1010.16 1010.54 1010.96 1011.42 1011.90 1012.42 1012.94 1013.47 1014.01 1014.54 1015.07 1015.59 1016.11 1016.64 1017.17 1017.69 1018.21 1018.70 1019.16 1019.56 1019.90 1020.17 1020.38 1020.54 1020.67 1020.82 1020.98 1021.19 1021.44 1021.72 1022.01 1022.28 1022.49 1022.61 1022.63 1022.56 1022.42 1022.24 1022.07 1021.97 1021.96 1022.07
1009.82 1010.06 1010.35 1010.69 1011.09 1011.55 1012.06 1012.62 1013.21 1013.82 1014.44 1015.05 1015.66 1016.25 1016.83 1017.40 1017.94 1018.47 1018.96 1019.40 1019.78 1020.09 1020.34 1020.54 1020.69 1020.83 1020.98 1021.16 1021.38 1021.66 1021.96 1022.28 1022.57 1022.81 1022.95 1023.01 1022.96 1022.84 1022.68 1022.53 1022.41 1022.39 1022.47
1009.76 1009.89 1010.07 1010.31 1010.64 1011.04 1011.53 1012.09 1012.72 1013.39 1014.07 1014.77 1015.45 1016.13 1016.78 1017.41 1018.00 1018.56 1019.08 1019.54 1019.93 1020.26 1020.52 1020.73 1020.89 1021.05 1021.21 1021.40 1021.63 1021.91 1022.22 1022.53 1022.83 1023.07 1023.23 1023.30 1023.28 1023.18 1023.03 1022.89 1022.79 1022.75 1022.82
1009.71 1009.71 1009.76 1009.89 1010.12 1010.45 1010.90 1011.45 1012.08 1012.78 1013.52 1014.29 1015.05 1015.80 1016.53 1017.23 1017.89 1018.52 1019.08 1019.59 1020.03 1020.40 1020.69 1020.93 1021.12 1021.29 1021.46 1021.65 1021.88 1022.14 1022.43 1022.73 1023.00 1023.23 1023.38 1023.46 1023.45 1023.37 1023.25 1023.13 1023.04 1023.02 1023.08
1009.71 1009.58 1009.50 1009.51 1009.64 1009.89 1010.28 1010.79 1011.42 1012.14 1012.91 1013.72 1014.54 1015.36 1016.17 1016.94 1017.68 1018.37 1019.00 1019.57 1020.06 1020.48 1020.82 1021.09 1021.31 1021.49 1021.67 1021.86 1022.07 1022.30 1022.56 1022.81 1023.05 1023.25 1023.39 1023.46 1023.47 1023.41 1023.33 1023.24 1023.18 1023.19 1023.26
1009.80 1009.54 1009.35 1009.25 1009.28 1009.46 1009.79 1010.26 1010.86 1011.57 1012.36 1013.19 1014.06 1014.93 1015.78 1016.62 1017.42 1018.17 1018.87 1019.49 1020.03 1020.49 1020.86 1021.16 1021.40 1021.59 1021.77 1021.94 1022.13 1022.33 1022.54 1022.76 1022.96 1023.13 1023.26 1023.33 1023.35 1023.33 1023.28 1023.24 1023.23 1023.27 1023.38
1009.97 1009.62 1009.34 1009.17 1009.13 1009.24 1009.52 1009.95 1010.52 1011.20 1011.98 1012.82 1013.69 1014.58 1015.47 1016.34 1017.17 1017.96 1018.69 1019.34 1019.91 1020.39 1020.78 1021.10 1021.34 1021.54 1021.70 1021.86 1022.02 1022.19 1022.37 1022.56 1022.74 1022.89 1023.01 1023.09 1023.14 1023.16 1023.16 1023.18 1023.22 1023.31 1023.46
1010.22 1009.82 1009.49 1009.28 1009.20 1009.28 1009.51 1009.90 1010.44 1011.09 1011.83 1012.64 1013.50 1014.38 1015.26 1016.13 1016.97 1017.76 1018.49 1019.14 1019.71 1020.18 1020.57 1020.88 1021.12 1021.30 1021.46 1021.60 1021.74 1021.90 1022.06 1022.24 1022.40 1022.56 1022.70 1022.80 1022.88 1022.95 1023.01 1023.08 1023.19 1023.33 1023.52
1010.50 1010.11 1009.79 1009.58 1009.50 1009.57 1009.78 1010.14 1010.63 1011.23 1011.93 1012.69 1013.49 1014.33 1015.17 1016.01 1016.81 1017.57 1018.26 1018.89 1019.42 1019.87 1020.24 1020.52 1020.74 1020.91 1021.06 1021.19 1021.33 1021.48 1021.65 1021.83 1022.01 1022.19 1022.35 1022.50 1022.62 1022.74 1022.85 1022.98 1023.13 1023.32 1023.55
1010.82 1010.48 1010.21 1010.04 1010.00 1010.07 1010.28 1010.61 1011.05 1011.60 1012.22 1012.91 1013.64 1014.41 1015.18 1015.95 1016.69 1017.39 1018.03 1018.60 1019.08 1019.49 1019.81 1020.06 1020.25 1020.41 1020.54 1020.68 1020.83 1021.00 1021.18 1021.39 1021.60 1021.81 1022.01 1022.20 1022.37 1022.53 1022.68 1022.85 1023.04 1023.25 1023.50
1011.15 1010.90 1010.72 1010.63 1010.63 1010.73 1010.93 1011.23 1011.62 1012.10 1012.64 1013.24 1013.88 1014.55 1015.24 1015.92 1016.58 1017.21 1017.78 1018.28 1018.70 1019.05 1019.33 1019.54 1019.71 1019.85 1019.98 1020.12 1020.29 1020.48 1020.70 1020.94 1021.19 1021.44 1021.68 1021.90 1022.10 1022.29 1022.47 1022.66 1022.86 1023.08 1023.33
1011.52 1011.38 1011.30 1011.29 1011.34 1011.47 1011.66 1011.92 1012.25 1012.64 1013.09 1013.59 1014.13 1014.70 1015.29 1015.89 1016.46 1017.01 1017.51 1017.94 1018.31 1018.60 1018.83 1019.01 1019.15 1019.28 1019.41 1019.56 1019.74 1019.96 1020.20 1020.47 1020.76 1021.04 1021.30 1021.55 1021.77 1021.97 1022.16 1022.34 1022.54 1022.75 1022.98
Thickness
5653 5661 5666 5670 5673 5676 5678 5680 5680 5681 5680 5678 5678 5676 5676 5678 5677 5677 5677 5676 5675 5673 5672 5670 5668 5666 5664 5662 5661 5659 5656 5654 5653 5650 5648 5648 5648 5647 5646 5644 5641 5638 5635
5644 5652 5658 5662 5665 5669 5671 5673 5674 5675 5675 5675 5674 5673 5672 5671 5671 5670 5669 5669 5668 5667 5665 5663 5661 5659 5657 5655 5653 5651 5649 5647 5645 5642 5638 5636 5637 5637 5636 5633 5630 5627 5624
5639 5645 5650 5655 5659 5662 5665 5668 5669 5670 5670 5669 5667 5664 5662 5661 5660 5660 5660 5660 5660 5659 5657 5655 5653 5651 5649 5647 5645 5643 5641 5639 5637 5635 5631 5627 5625 5625 5624 5620 5617 5615 5612
5635 5640 5644 5649 5652 5656 5659 5661 5663 5663 5663 5662 5661 5659 5656 5655 5656 5654 5652 5651 5651 5650 5648 5646 5644 5642 5640 5638 5636 5635 5633 5631 5628 5625 5624 5622 5619 5615 5613 5609 5605 5602 5598
5630 5634 5639 5644 5647 5650 5651 5653 5655 5655 5655 5655 5654 5652 5651 5650 5648 5646 5643 5641 5640 5639 5638 5636 5634 5632 5630 5628 5627 5625 5623 5622 5619 5617 5615 5613 5610 5607 5604 5601 5594 5588 5584
5626 5629 5633 5636 5638 5640 5642 5643 5645 5645 5646 5646 5645 5644 5643 5641 5638 5636 5633 5631 5629 5628 5627 5625 5624 5622 5620 5618 5616 5615 5613 5611 5610 5607 5605 5603 5601 5598 5595 5592 5588 5581 5573
5619 5622 5624 5626 5627 5629 5631 5633 5634 5635 5635 5636 5635 5635 5634 5633 5630 5628 5625 5621 5618 5616 5615 5614 5612 5611 5609 5608 5606 5604 5602 5601 5599 5597 5595 5593 5591 5588 5586 5583 5580 5573 5565
5611 5615 5617 5618 5619 5620 5620 5621 5623 5623 5623 5624 5624 5624 5623 5622 5620 5618 5616 5612 5609 5606 5604 5602 5601 5599 5598 5596 5595 5593 5591 5589 5588 5586 5584 5581 5579 5576 5575 5573 5570 5566 5559
5603 5605 5607 5608 5609 5610 5610 5611 5612 5612 5611 5612 5611 5611 5610 5609 5608 5606 5604 5601 5598 5596 5593 5591 5589 5588 5586 5584 5583 5581 5579 5577 5575 5573 5571 5569 5566 5564 5562 5561 5559 5557 5555
5591 5594 5595 5597 5598 5598 5599 5599 5600 5600 5600 5600 5600 5599 5598 5597 5595 5593 5591 5589 5586 5584 5580 5578 5577 5575 5573 5572 5570 5568 5566 5564 5563 5561 5559 5556 5554 5552 5550 5548 5546 5544 5544
5579 5582 5584 5585 5587 5587 5587 5587 5588 5588 5587 5587 5586 5585 5584 5583 5582 5580 5578 5575 5573 5571 5568 5566 5564 5562 5560 5558 5556 5555 5553 5551 5549 5547 5546 5543 5541 5539 5537 5536 5534 5532 5531
5569 5570 5571 5572 5573 5575 5575 5576 5576 5576 5576 5575 5574 5573 5572 5570 5568 5566 5564 5562 5560 5558 5556 5554 5552 5549 5547 5545 5543 5542 5540 5539 5536 5534 5532 5530 5529 5526 5524 5523 5521 5520 5518
5558 5558 5559 5560 5562 5563 5564 5564 5565 5565 5564 5563 5562 5560 5559 5557 5555 5553 5551 5549 5547 5545 5543 5541 5538 5536 5534 5532 5531 5529 5527 5526 5524 5522 5520 5517 5516 5513 5512 5510 5509 5507 5506
5546 5547 5548 5549 5550 5552 5553 5554 5554 5554 5554 5552 5550 5549 5547 5545 5543 5541 5539 5537 5534 5532 5530 5528 5526 5524 5522 5520 5518 5516 5514 5512 5510 5509 5507 5505 5503 5501 5499 5498 5496 5495 5493
5537 5539 5539 5539 5540 5541 5542 5543 5544 5544 5544 5542 5540 5539 5536 5534 5532 5529 5527 5525 5522 5520 5518 5516 5514 5512 5510 5508 5506 5504 5502 5499 5497 5495 5494 5492 5491 5490 5489 5487 5485 5484 5481
5527 5530 5531 5531 5531 5532 5534 5535 5535 5534 5534 5533 5531 5528 5526 5523 5520 5518 5515 5513 5511 5509 5507 5505 5502 5500 5499 5497 5495 5492 5490 5487 5485 5483 5481 5480 5479 5479 5478 5477 5475 5473 5471
5515 5518 5520 5522 5524 5526 5527 5527 5528 5526 5525 5523 5521 5519 5516 5513 5510 5508 5504 5502 5500 5498 5495 5493 5491 5489 5488 5487 5485 5482 5478 5476 5473 5471 5469 5468 5467 5465 5464 5464 5463 5462 5462
5504 5507 5510 5513 5516 5518 5519 5520 5519 5517 5516 5514 5512 5509 5506 5503 5500 5497 5494 5491 5489 5486 5484 5482 5480 5478 5477 5477 5474 5471 5467 5464 5462 5460 5459 5457 5455 5454 5453 5451 5449 5449 5449
5493 5496 5499 5503 5506 5509 5511 5511 5510 5508 5506 5505 5503 5501 5498 5494 5491 5488 5485 5482 5479 5476 5474 5472 5470 5468 5467 5466 5464 5461 5456 5453 5451 5450 5449 5447 5446 5446 5444 5441 5439 5438 5438
5484 5488 5491 5493 5497 5499 5501 5501 5500 5499 5498 5498 5496 5493 5491 5487 5484 5480 5476 5473 5470 5468 5465 5463 5461 5459 5457 5456 5455 5452 5447 5444 5442 5441 5440 5439 5438 5437 5436 5432 5430 5428 5427
5478 5480 5482 5484 5487 5490 5492 5492 5492 5492 5492 5490 5487 5485 5482 5479 5476 5472 5468 5465 5461 5458 5456 5453 5452 5450 5448 5447 5446 5444 5439 5436 5434 5432 5431 5430 5431 5430 5428 5425 5422 5422 5420
5470 5472 5473 5475 5477 5479 5482 5483 5483 5483 5482 5481 5478 5476 5473 5471 5467 5463 5459 5456 5453 5450 5447 5445 5443 5441 5440 5439 5438 5437 5434 5431 5428 5426 5424 5423 5423 5423 5421 5418 5417 5416 5414
5460 5462 5463 5464 5466 5469 5471 5473 5473 5473 5473 5471 5469 5466 5464 5461 5458 5455 5451 5448 5445 5443 5440 5438 5436 5434 5433 5432 5432 5431 5429 5426 5422 5420 5419 5417 5417 5416 5414 5412 5411 5409 5406
5452 5453 5453 5455 5456 5459 5461 5463 5464 5464 5463 5461 5459 5457 5455 5452 5449 5447 5445 5442 5439 5437 5434 5432 5430 5428 5426 5424 5424 5423 5422 5421 5418 5415 5413 5412 5411 5409 5407 5405 5404 5401 5399
5444 5445 5445 5447 5449 5451 5452 5454 5455 5455 5454 5452 5450 5448 5447 5445 5442 5440 5439 5437 5436 5434 5431 5429 5426 5423 5421 5422 5420 5417 5415 5413 5411 5408 5405 5403 5402 5400 5398 5397 5395 5394 5392
5436 5437 5438 5439 5441 5442 5443 5444 5445 5446 5445 5443 5441 5440 5438 5436 5434 5432 5430 5430 5428 5428 5426 5424 5421 5420 5419 5417 5416 5414 5411 5409 5406 5403 5399 5398 5396 5395 5393 5392 5390 5388 5387